Temp
62 63 63 63 54 47 42 50 55 61 64 66 69 68 67 65 65 58 75 77 75 74 74 74 73 74 75 75 75 75 76 76 76 76 76 76 76 76 76 76 76 77 78 79 78 78 78 77 75
63 69 64 55 47 41 47 53 56 60 68 71 71 69 67 65 73 73 74 77 75 74 73 73 73 74 74 74 74 75 76 76 76 76 76 76 76 76 76 75 75 76 78 78 79 79 78 76 74
65 68 59 49 41 42 46 55 60 69 70 68 68 71 69 67 73 74 76 77 75 74 74 74 73 73 74 74 74 74 75 75 75 75 76 76 76 76 76 75 75 76 77 78 79 78 76 74 73
65 62 56 48 42 50 53 61 64 64 71 70 66 67 71 74 74 76 78 77 74 73 74 72 72 73 74 74 74 74 74 73 74 74 75 76 76 76 75 74 75 77 77 78 78 77 75 73 72
60 55 47 41 44 51 58 64 64 65 68 71 69 64 66 75 77 76 76 77 73 72 72 72 71 72 73 74 74 74 73 73 73 74 74 75 76 75 75 74 75 75 76 77 76 75 73 73 72
56 52 43 41 45 54 61 64 66 66 68 70 69 65 65 74 74 74 75 74 74 72 71 72 72 72 72 73 73 72 72 72 73 73 74 74 74 74 74 74 74 74 74 74 74 73 73 72 72
52 48 41 41 47 51 60 67 64 64 65 67 70 62 67 72 75 75 74 72 72 71 70 70 71 72 71 71 71 71 71 71 72 72 72 73 73 72 73 73 74 74 73 73 73 72 72 72 72
53 50 41 43 47 49 61 65 66 65 64 73 69 62 61 72 73 71 70 69 68 69 69 69 69 70 70 70 70 70 70 70 71 71 71 71 71 72 72 72 73 73 73 73 73 72 71 71 71
55 45 40 45 48 54 62 59 65 69 64 68 68 66 72 74 72 69 66 68 68 69 68 68 68 68 69 69 70 70 71 70 70 71 70 69 71 71 71 71 71 72 71 71 72 71 70 69 69
51 41 46 53 55 57 60 55 60 61 63 64 66 70 71 71 69 67 67 67 67 68 68 68 68 68 68 71 69 69 70 70 70 70 70 71 70 69 71 70 69 70 70 70 70 70 69 69 67
47 45 51 57 61 59 56 57 60 59 58 64 65 68 69 68 69 68 68 68 68 68 69 68 68 67 67 68 68 68 70 71 71 71 71 73 72 70 70 69 69 69 69 70 69 69 69 68 67
46 54 55 57 60 57 57 59 58 60 64 67 68 68 66 68 67 66 67 69 64 66 68 68 68 68 67 68 67 67 68 68 70 71 71 71 70 70 71 71 69 68 69 70 69 69 69 68 67
51 53 57 59 59 57 59 56 58 61 68 65 66 66 64 64 65 66 67 63 60 60 63 68 69 67 67 67 67 67 68 68 68 68 70 71 70 70 71 70 69 68 68 68 69 69 69 69 67
55 55 55 58 59 59 58 56 55 62 65 64 65 64 64 63 65 62 65 58 60 61 62 65 64 67 69 67 67 67 68 68 67 68 68 70 69 68 68 69 68 68 68 68 68 69 69 69 67
57 50 53 55 58 55 57 52 55 62 62 61 62 65 64 64 65 64 61 59 59 60 62 62 61 61 60 61 62 62 66 67 67 68 69 69 69 69 68 68 68 68 68 68 68 67 68 67 67
50 47 41 53 58 58 51 44 57 62 63 59 61 61 62 63 64 60 58 57 55 58 58 58 62 59 58 57 57 59 59 60 63 64 66 67 69 69 68 67 68 69 66 67 67 68 67 67 66
42 34 39 46 57 54 49 47 55 61 60 60 59 58 60 58 56 55 56 55 54 54 55 55 56 55 55 55 55 55 56 56 58 59 62 64 65 66 65 65 67 66 66 66 66 66 67 66 66
37 37 33 40 50 53 50 50 56 57 54 55 54 56 55 53 53 56 55 55 54 53 54 54 53 53 53 52 53 53 53 54 55 56 57 60 60 62 64 63 63 65 66 65 65 66 66 66 66
42 39 38 42 50 47 47 49 53 52 52 51 51 54 51 52 54 53 53 52 52 52 52 51 50 50 51 50 48 48 47 50 51 53 55 56 55 57 58 60 61 64 64 64 66 66 65 64 63
43 40 39 44 50 48 46 46 48 49 52 53 54 52 51 51 50 51 50 49 48 48 49 48 48 47 48 48 46 47 46 48 50 50 51 52 52 55 56 56 59 60 61 64 66 65 64 63 63
42 40 41 42 47 47 44 42 45 52 55 54 52 54 53 50 47 48 48 46 45 44 44 46 45 46 45 46 46 46 46 47 47 46 47 49 50 51 51 53 54 55 58 59 61 64 63 62 62
38 48 47 44 39 33 42 32 45 47 45 46 45 44 44 44 45 45 44 43 44 44 45 44 45 44 45 44 42 40 39 39 42 43 45 46 48 49 50 51 51 52 54 55 58 62 63 62 60
42 49 46 45 37 34 37 30 37 42 40 40 42 44 43 44 44 42 42 42 43 43 42 42 42 42 42 41 40 39 37 39 41 42 42 43 45 47 48 48 48 49 51 53 55 57 61 64 63
51 45 42 39 37 28 37 35 30 36 41 41 42 44 46 45 45 45 46 46 43 42 41 42 40 40 39 38 37 36 35 35 36 38 39 41 44 45 46 46 46 46 48 49 52 55 57 62 64
44 38 30 24 24 25 38 32 32 39 41 40 39 39 42 44 43 42 41 41 41 40 39 40 38 37 37 36 36 35 35 35 36 37 38 39 42 44 44 44 44 45 47 48 48 49 51 54 61
39 38 26 22 23 25 36 28 32 42 43 42 43 42 42 41 41 39 38 38 37 38 38 36 36 35 36 37 37 38 38 38 39 40 39 40 41 43 45 45 46 47 48 49 50 49 50 52 55
39 33 39 31 30 26 29 33 39 41 40 40 40 42 41 41 40 39 38 37 36 36 36 34 34 35 36 36 37 37 38 38 38 40 40 40 42 43 44 44 44 45 46 47 48 48 48 51 53
43 44 30 28 22 21 26 28 27 36 38 40 41 41 41 41 39 38 37 37 37 35 36 36 35 35 36 37 37 37 37 38 39 39 38 39 40 41 41 42 42 43 44 46 47 48 49 49 51
37 35 35 33 28 22 21 26 38 39 41 41 41 40 38 37 36 36 36 36 36 35 33 34 35 35 35 35 36 37 37 37 37 36 37 37 38 38 39 40 41 41 42 45 46 47 49 49 51
40 37 36 27 27 27 25 27 43 41 42 44 40 38 35 34 32 32 32 33 34 32 34 33 34 33 34 35 34 35 36 36 36 35 36 36 36 37 37 38 39 40 42 43 44 45 49 50 51
MSLP
1011.72 1011.52 1011.72 1012.02 1013.61 1014.05 1013.24 1011.84 1010.20 1008.95 1007.58 1006.06 1005.69 1005.81 1006.12 1006.43 1006.65 1007.08 1005.99 1005.84 1006.10 1006.65 1007.07 1007.35 1007.57 1007.84 1008.19 1008.44 1008.40 1008.21 1008.27 1008.54 1008.89 1009.20 1009.56 1009.87 1010.20 1010.59 1011.01 1011.46 1011.81 1012.14 1012.37 1012.54 1012.72 1012.91 1013.19 1013.50 1013.65
1011.68 1011.56 1012.06 1013.06 1014.11 1014.54 1012.83 1011.11 1010.01 1008.56 1007.37 1006.36 1005.82 1005.75 1006.18 1006.53 1006.21 1006.20 1006.10 1006.25 1006.47 1006.69 1007.06 1007.54 1007.82 1007.95 1008.15 1008.42 1008.67 1008.66 1008.52 1008.72 1009.07 1009.34 1009.66 1010.02 1010.29 1010.68 1011.12 1011.52 1011.90 1012.12 1012.33 1012.54 1012.80 1013.02 1013.34 1013.65 1013.78
1011.70 1011.80 1012.75 1013.89 1014.53 1014.27 1012.52 1010.63 1009.44 1007.79 1006.85 1006.47 1005.86 1005.77 1006.16 1006.65 1006.42 1006.16 1005.95 1006.32 1006.70 1006.90 1007.01 1007.30 1007.72 1008.01 1008.14 1008.43 1008.84 1009.05 1009.02 1008.97 1009.28 1009.57 1009.86 1010.15 1010.49 1010.77 1011.20 1011.58 1011.94 1012.20 1012.43 1012.58 1012.78 1013.12 1013.51 1013.80 1013.91
1011.85 1012.58 1013.81 1013.74 1014.17 1013.08 1011.70 1010.15 1009.07 1007.95 1006.39 1006.20 1005.90 1006.30 1006.49 1006.58 1006.28 1006.13 1006.18 1006.55 1006.88 1007.12 1007.15 1007.32 1007.46 1007.77 1008.08 1008.29 1008.71 1009.01 1009.19 1009.28 1009.46 1009.69 1009.97 1010.24 1010.54 1010.88 1011.23 1011.63 1011.90 1012.18 1012.35 1012.46 1012.62 1012.86 1013.21 1013.53 1013.74
1012.58 1013.51 1014.43 1014.18 1013.40 1012.26 1011.33 1009.82 1008.97 1007.98 1007.32 1006.64 1006.34 1006.60 1006.82 1006.64 1006.72 1006.53 1006.44 1006.65 1006.93 1007.26 1007.37 1007.57 1007.85 1007.90 1008.01 1008.19 1008.46 1008.79 1009.10 1009.36 1009.48 1009.71 1010.00 1010.35 1010.60 1010.88 1011.19 1011.50 1011.83 1012.00 1012.17 1012.36 1012.58 1012.85 1013.15 1013.30 1013.46
1013.36 1014.34 1015.07 1014.41 1013.04 1012.02 1010.89 1009.79 1009.08 1008.62 1007.82 1007.13 1006.84 1007.06 1007.06 1006.90 1006.86 1006.63 1006.60 1006.71 1006.80 1006.93 1007.22 1007.50 1007.84 1008.18 1008.33 1008.45 1008.57 1008.82 1009.01 1009.31 1009.56 1009.76 1009.97 1010.12 1010.47 1010.73 1011.04 1011.32 1011.71 1012.05 1012.26 1012.46 1012.58 1012.78 1013.09 1013.31 1013.41
1013.69 1014.58 1015.09 1014.34 1012.98 1011.74 1010.46 1009.54 1009.30 1009.09 1008.33 1007.68 1007.42 1007.51 1007.56 1007.16 1006.75 1006.77 1006.68 1006.81 1006.91 1007.13 1007.31 1007.43 1007.65 1007.89 1008.03 1008.29 1008.66 1008.89 1009.12 1009.32 1009.54 1009.62 1009.79 1009.97 1010.17 1010.64 1010.94 1011.33 1011.50 1011.78 1012.15 1012.33 1012.62 1012.80 1013.06 1013.24 1013.53
1013.84 1014.66 1014.87 1014.32 1013.13 1011.79 1010.50 1009.99 1009.59 1009.37 1008.73 1007.94 1007.61 1007.79 1007.68 1007.07 1006.93 1007.12 1007.21 1007.25 1007.36 1007.40 1007.47 1007.74 1008.03 1008.14 1008.28 1008.40 1008.43 1008.73 1009.07 1009.29 1009.42 1009.43 1009.45 1009.67 1009.73 1010.22 1010.77 1011.20 1011.56 1011.75 1011.87 1012.25 1012.43 1012.62 1012.85 1013.11 1013.36
1013.72 1014.83 1014.94 1013.87 1013.03 1011.79 1010.88 1010.66 1009.88 1009.34 1009.14 1008.55 1008.00 1008.04 1007.85 1007.30 1007.29 1007.36 1007.50 1007.55 1007.67 1007.67 1007.68 1007.79 1008.15 1008.39 1008.39 1008.49 1008.70 1008.79 1008.88 1009.03 1009.37 1009.60 1009.69 1009.81 1010.09 1010.13 1010.56 1011.08 1011.47 1011.79 1012.06 1012.16 1012.47 1012.60 1012.82 1013.04 1013.33
1014.05 1014.82 1014.26 1013.14 1012.32 1011.91 1011.45 1011.18 1010.61 1010.04 1009.44 1008.79 1008.31 1007.84 1007.78 1007.58 1007.69 1007.88 1007.81 1007.83 1007.83 1007.83 1007.84 1007.88 1008.02 1008.29 1008.64 1008.51 1008.63 1008.93 1009.14 1009.12 1009.11 1009.49 1009.99 1010.39 1010.58 1010.54 1010.64 1010.85 1011.23 1011.58 1011.90 1012.26 1012.46 1012.79 1012.83 1013.02 1013.28
1013.86 1014.09 1013.71 1012.68 1011.99 1011.80 1011.43 1011.16 1010.66 1010.24 1009.63 1009.13 1008.85 1008.35 1007.79 1007.81 1007.70 1007.83 1007.82 1007.78 1007.70 1007.75 1007.74 1007.77 1007.84 1007.97 1008.23 1008.63 1008.55 1008.76 1009.05 1009.28 1009.37 1009.42 1009.70 1010.07 1010.46 1010.62 1010.72 1010.95 1011.22 1011.46 1011.64 1012.02 1012.45 1012.64 1012.94 1013.03 1013.16
1013.80 1013.33 1013.24 1012.75 1012.05 1011.89 1011.67 1010.92 1010.59 1010.31 1009.25 1009.11 1008.94 1008.63 1008.35 1008.09 1008.08 1007.93 1007.72 1007.43 1007.50 1007.58 1007.47 1007.21 1007.50 1007.98 1008.04 1008.35 1008.67 1008.86 1009.07 1009.25 1009.44 1009.52 1009.57 1009.73 1010.22 1010.43 1010.35 1010.52 1010.98 1011.58 1011.71 1011.88 1012.17 1012.53 1012.63 1012.86 1013.02
1013.84 1013.53 1013.10 1012.61 1012.13 1011.83 1011.30 1010.97 1010.40 1009.50 1008.91 1008.99 1008.87 1008.85 1008.41 1008.00 1007.84 1007.57 1007.50 1007.54 1007.77 1007.83 1007.64 1007.31 1007.46 1007.87 1008.01 1008.27 1008.56 1008.70 1008.87 1009.07 1009.28 1009.76 1009.67 1009.63 1009.85 1010.01 1010.16 1010.15 1010.36 1010.90 1011.44 1011.62 1011.83 1012.01 1012.37 1012.62 1012.85
1013.81 1013.69 1013.17 1012.55 1011.76 1011.27 1010.77 1010.35 1010.38 1009.41 1008.78 1008.98 1008.72 1008.41 1007.85 1007.77 1007.40 1007.29 1007.45 1008.07 1007.92 1007.84 1007.75 1007.85 1007.95 1008.03 1008.11 1008.46 1008.69 1008.71 1008.65 1008.55 1009.61 1009.65 1010.06 1009.86 1009.64 1009.70 1009.71 1009.93 1010.12 1010.31 1010.67 1011.21 1011.54 1011.72 1012.12 1012.34 1012.56
1014.01 1013.80 1013.24 1012.30 1011.32 1010.91 1010.53 1010.07 1009.86 1009.46 1009.26 1009.07 1008.65 1008.30 1007.94 1007.51 1007.15 1007.05 1007.33 1008.06 1008.00 1008.05 1008.08 1008.26 1008.39 1008.48 1008.64 1008.78 1008.94 1008.92 1009.16 1009.09 1009.57 1009.83 1010.00 1009.65 1009.54 1009.49 1009.71 1009.88 1009.85 1009.87 1010.20 1010.58 1011.09 1011.64 1011.85 1012.14 1012.43
1014.61 1014.37 1013.84 1012.40 1011.71 1011.01 1010.82 1010.09 1010.14 1009.34 1009.27 1009.30 1008.99 1008.57 1008.12 1007.56 1007.20 1007.10 1007.76 1008.61 1008.74 1008.58 1008.81 1009.06 1009.14 1008.90 1009.10 1009.26 1009.55 1009.70 1009.61 1009.78 1009.81 1009.93 1009.61 1009.26 1009.17 1009.10 1009.55 1009.93 1010.25 1010.06 1010.24 1010.58 1010.85 1011.00 1011.20 1011.61 1011.86
1015.53 1015.23 1014.69 1013.43 1012.09 1011.89 1011.26 1010.52 1010.40 1009.93 1009.74 1009.74 1009.46 1009.10 1008.94 1008.63 1008.82 1008.54 1008.69 1009.12 1009.54 1009.62 1009.82 1010.04 1010.10 1009.89 1009.62 1009.64 1009.74 1010.00 1010.24 1010.15 1010.17 1010.06 1010.15 1010.08 1009.65 1009.29 1008.97 1010.00 1010.05 1009.96 1010.19 1010.57 1010.58 1010.63 1010.52 1010.92 1011.21
1015.70 1015.57 1015.22 1014.22 1013.15 1012.51 1011.70 1010.14 1010.59 1010.31 1010.18 1010.03 1010.13 1009.72 1009.74 1010.02 1010.74 1011.51 1011.34 1011.07 1010.86 1010.76 1010.81 1011.05 1011.13 1010.76 1010.50 1010.19 1010.05 1010.16 1010.50 1010.80 1010.45 1010.26 1010.51 1010.45 1010.38 1010.11 1009.58 1009.65 1009.48 1008.46 1009.73 1011.03 1010.38 1010.15 1009.88 1009.80 1010.21
1015.51 1015.45 1015.22 1014.80 1013.79 1013.11 1012.05 1010.72 1011.04 1010.87 1010.57 1010.23 1009.97 1010.21 1010.68 1011.38 1011.92 1012.24 1012.86 1013.03 1012.93 1012.14 1012.04 1012.19 1012.38 1012.20 1011.40 1011.07 1010.99 1010.84 1011.05 1010.90 1010.82 1010.93 1011.05 1010.93 1011.00 1010.61 1010.29 1009.89 1009.56 1009.65 1010.31 1010.21 1010.16 1009.34 1009.49 1009.44 1009.84
1015.25 1015.20 1015.08 1014.44 1013.63 1013.18 1012.22 1010.92 1010.76 1011.00 1010.76 1010.57 1010.29 1010.46 1011.09 1011.54 1012.46 1012.89 1013.43 1013.78 1014.15 1014.30 1014.12 1014.21 1013.98 1013.67 1013.10 1012.50 1012.34 1012.13 1011.96 1011.66 1011.29 1011.31 1011.35 1011.15 1011.16 1010.97 1010.83 1010.61 1010.28 1010.25 1009.26 1008.95 1009.27 1009.42 1009.12 1009.03 1009.32
1014.81 1014.83 1014.37 1014.50 1013.80 1013.21 1012.78 1011.35 1010.76 1010.89 1010.86 1010.97 1011.14 1010.86 1012.23 1013.30 1013.86 1014.68 1014.99 1015.02 1015.02 1015.35 1015.47 1015.37 1015.64 1015.33 1015.00 1013.96 1013.16 1012.46 1011.88 1011.58 1011.71 1011.80 1011.91 1011.86 1011.73 1011.53 1011.32 1011.18 1010.96 1010.55 1010.58 1010.30 1008.88 1008.41 1008.00 1008.44 1008.71
1014.54 1014.17 1013.89 1013.93 1014.35 1013.86 1013.34 1012.68 1011.87 1011.77 1012.63 1013.09 1013.53 1013.84 1014.37 1015.04 1015.69 1016.26 1016.39 1016.24 1016.18 1016.18 1016.07 1016.04 1016.05 1016.37 1015.68 1015.01 1013.95 1013.22 1013.30 1013.04 1012.77 1012.74 1012.17 1011.83 1011.58 1011.33 1011.08 1010.80 1010.61 1010.35 1009.93 1009.44 1008.87 1008.20 1007.86 1007.59 1007.68
1013.77 1013.54 1013.81 1013.89 1014.24 1014.22 1014.15 1014.87 1012.58 1013.10 1014.11 1014.88 1015.09 1015.51 1016.02 1016.30 1016.46 1017.09 1017.44 1017.53 1017.45 1017.12 1016.57 1016.69 1016.45 1016.77 1016.14 1015.61 1014.79 1014.33 1014.25 1013.64 1012.86 1012.78 1012.32 1011.72 1011.39 1011.31 1010.88 1010.79 1010.47 1010.29 1010.05 1009.63 1009.17 1008.41 1007.70 1006.93 1007.04
1013.07 1013.54 1013.94 1014.27 1014.82 1014.94 1013.78 1014.79 1014.08 1014.59 1015.16 1015.77 1016.07 1016.33 1016.81 1017.53 1017.48 1017.53 1017.94 1017.92 1018.12 1017.76 1017.44 1016.94 1016.61 1016.69 1016.74 1016.19 1015.66 1015.74 1014.95 1013.85 1013.20 1013.16 1012.52 1011.80 1011.29 1010.82 1010.89 1010.67 1010.38 1010.07 1009.85 1009.47 1009.14 1008.59 1007.85 1006.93 1006.33
1013.08 1014.01 1014.75 1015.35 1015.78 1015.12 1014.51 1014.88 1014.69 1015.20 1015.75 1016.37 1016.98 1017.24 1017.40 1018.17 1018.19 1017.83 1018.10 1018.33 1018.59 1018.24 1017.68 1016.91 1017.24 1016.83 1017.30 1017.04 1016.99 1015.77 1015.15 1014.48 1013.95 1013.28 1012.69 1012.17 1011.45 1010.98 1010.38 1010.13 1009.89 1009.52 1009.20 1009.01 1008.81 1008.55 1008.08 1007.38 1006.08
1012.65 1013.45 1014.93 1015.23 1015.91 1015.56 1015.04 1015.03 1014.39 1015.31 1015.95 1016.51 1016.88 1016.99 1017.55 1018.28 1018.69 1018.89 1019.07 1018.57 1018.55 1018.69 1018.80 1018.53 1018.48 1018.32 1018.18 1017.11 1015.79 1015.68 1015.42 1014.74 1013.97 1013.18 1012.69 1012.34 1011.75 1011.11 1010.52 1009.97 1009.42 1008.80 1008.44 1008.16 1007.91 1007.47 1006.98 1006.44 1005.92
1012.66 1013.53 1013.97 1015.26 1016.11 1016.19 1015.19 1015.20 1015.36 1015.59 1016.02 1016.34 1016.69 1017.11 1017.38 1017.69 1018.76 1019.42 1019.85 1019.48 1019.54 1019.75 1019.77 1019.22 1018.84 1018.82 1018.28 1016.80 1016.63 1016.25 1015.77 1014.81 1013.95 1013.12 1012.58 1012.17 1011.59 1010.89 1010.22 1009.74 1009.16 1008.64 1007.91 1007.37 1006.86 1006.40 1005.98 1005.47 1004.93
1011.84 1012.90 1014.37 1015.75 1016.55 1016.11 1014.95 1014.57 1014.07 1014.68 1015.33 1016.04 1016.52 1017.07 1017.80 1018.31 1019.47 1020.00 1020.10 1019.89 1020.51 1020.79 1020.69 1020.07 1019.85 1019.10 1018.05 1017.42 1016.90 1016.36 1015.91 1014.99 1014.05 1013.21 1012.44 1012.04 1011.38 1010.72 1009.93 1009.14 1008.61 1008.22 1007.73 1007.03 1006.34 1005.58 1005.19 1004.90 1004.31
1012.46 1013.00 1013.96 1015.08 1015.90 1015.65 1014.98 1013.53 1012.62 1013.31 1013.98 1015.28 1016.31 1017.06 1017.90 1018.94 1019.83 1020.26 1020.35 1020.98 1020.98 1020.97 1020.59 1020.43 1020.25 1018.98 1017.79 1017.47 1017.15 1016.72 1015.82 1014.77 1013.92 1013.24 1012.54 1011.95 1011.26 1010.44 1009.52 1008.73 1007.99 1007.41 1006.67 1006.08 1005.49 1005.07 1004.60 1004.03 1003.53
1011.77 1012.32 1013.16 1014.49 1015.20 1015.07 1014.72 1012.99 1012.32 1012.55 1013.62 1014.87 1016.04 1017.20 1018.42 1019.52 1020.36 1020.81 1021.11 1020.95 1020.70 1020.69 1020.26 1020.19 1019.28 1018.30 1017.83 1017.97 1017.37 1016.68 1015.71 1014.46 1014.16 1013.37 1012.53 1011.76 1010.92 1010.15 1009.32 1008.49 1007.77 1007.01 1006.17 1005.43 1004.54 1003.82 1003.09 1002.49 1002.04
Wind_Speed
6 4 1 5 5 6 4 6 3 8 6 3 3 3 7 3 4 5 3 4 6 9 7 10 11 11 10 7 8 12 14 15 16 16 16 16 17 17 16 16 15 13 14 16 15 14 13 11 9
4 1 5 3 6 3 6 5 4 4 6 10 4 2 4 2 1 3 2 5 7 10 8 7 9 11 11 9 7 8 12 14 14 15 16 16 17 17 17 16 14 14 14 15 14 13 12 10 8
1 3 4 5 4 4 4 3 7 16 8 3 3 4 2 1 2 2 2 8 8 8 9 9 11 10 11 11 9 7 8 12 13 13 14 15 16 17 17 15 14 14 13 13 13 11 10 9 8
3 5 5 5 4 6 5 7 7 9 6 4 1 5 3 3 1 3 3 7 7 6 8 9 13 13 12 12 11 10 9 9 11 12 13 14 15 16 16 14 14 14 14 13 13 13 12 11 10
5 4 3 0 4 4 5 7 7 6 6 6 6 2 2 6 5 3 5 7 7 6 5 8 10 10 12 13 13 12 11 10 11 11 12 12 13 14 15 14 14 14 14 13 11 11 11 10 10
4 4 3 4 4 2 6 5 6 7 6 7 8 2 2 3 3 3 3 7 7 9 7 7 10 9 9 9 10 10 10 10 10 10 11 13 12 13 14 14 13 11 11 10 11 11 10 10 10
5 5 3 4 3 2 1 7 6 6 7 6 6 2 4 5 7 6 5 5 6 6 6 6 8 10 12 12 10 10 10 11 10 11 11 12 12 11 13 13 14 13 12 11 10 10 10 10 9
5 5 0 4 3 3 3 2 4 7 7 9 1 1 3 6 3 2 2 3 3 3 5 5 4 5 5 6 11 12 11 11 12 12 13 13 13 12 12 12 12 12 13 11 11 11 11 10 10
3 4 2 5 3 3 2 7 5 4 4 5 3 2 7 4 1 4 2 1 1 2 3 4 4 4 5 4 5 7 11 12 11 10 10 9 6 7 8 10 11 12 11 11 11 11 10 9 9
4 4 9 5 3 5 4 4 5 5 7 6 5 3 1 2 3 3 4 5 4 4 5 5 6 6 4 3 4 4 4 5 6 5 4 4 4 4 6 7 11 12 12 11 10 9 9 8 4
3 5 5 6 7 7 6 5 3 4 8 7 8 8 6 4 5 6 7 8 7 4 3 7 6 6 7 5 3 2 3 4 5 7 6 8 6 4 4 2 4 5 9 5 6 6 4 6 4
3 5 3 5 5 6 9 7 4 9 13 6 8 9 5 11 8 9 10 9 2 4 6 7 8 7 6 3 3 3 3 3 5 6 7 6 4 6 6 5 4 3 3 6 6 4 7 6 6
5 4 5 8 9 6 8 9 12 12 13 8 9 10 12 11 11 9 9 3 4 3 2 1 5 5 5 5 3 3 3 4 4 4 7 6 6 8 6 6 4 4 4 5 6 7 8 9 7
3 6 7 6 12 7 10 6 2 8 9 9 9 12 12 10 12 6 8 5 6 6 7 7 7 3 4 3 1 2 3 3 1 1 3 6 4 5 5 5 5 5 6 5 6 8 9 8 7
6 6 5 6 8 6 4 6 6 8 7 10 12 13 10 10 9 13 5 8 8 7 7 8 8 7 7 6 5 3 2 3 3 2 4 4 6 5 5 5 5 6 5 7 5 5 5 6 5
6 3 2 6 5 5 2 4 8 10 14 10 11 12 12 13 9 5 8 6 5 8 9 9 7 9 8 7 5 4 5 4 3 2 4 7 9 5 3 2 5 3 4 5 7 8 8 8 8
3 3 4 6 6 6 2 9 5 11 9 13 11 12 12 9 11 7 8 8 8 8 9 11 10 11 9 7 5 5 7 5 4 4 5 6 8 9 4 6 5 2 3 4 6 7 8 7 8
5 4 3 2 7 13 17 22 14 8 7 9 9 10 8 9 11 12 14 12 11 10 11 11 10 11 8 5 4 4 4 4 4 4 6 8 8 11 8 6 9 7 9 8 6 9 8 7 9
2 3 5 6 11 8 15 20 14 8 7 10 8 7 8 11 10 13 12 12 12 13 14 13 12 12 9 5 4 4 4 3 3 4 6 6 7 9 9 5 5 8 17 12 11 8 10 7 4
7 10 10 7 11 7 12 17 10 4 7 6 9 5 11 10 10 11 12 14 16 14 14 14 12 12 10 6 4 2 2 3 2 4 5 6 7 8 8 8 5 6 7 14 19 12 7 4 7
10 8 12 11 6 6 7 13 10 8 8 8 13 5 9 12 13 13 15 14 13 15 14 13 12 10 9 8 4 3 2 2 3 5 3 5 5 4 5 5 5 6 5 8 7 6 8 5 2
9 9 11 9 4 10 5 14 17 8 14 15 15 15 14 15 15 13 13 14 14 12 12 13 13 13 11 11 8 9 4 3 3 6 7 6 6 5 4 5 6 7 6 6 7 7 10 9 11
8 8 11 13 4 5 5 3 6 8 9 10 12 14 14 12 12 11 10 9 10 10 11 10 11 12 13 13 12 8 7 4 5 6 9 9 6 5 7 5 5 6 6 7 8 10 9 9 13
6 4 0 3 2 6 12 9 5 3 1 8 11 14 15 12 12 12 11 10 8 9 10 11 13 13 14 13 12 10 9 10 8 8 8 7 7 8 6 7 6 6 7 7 7 9 10 10 12
5 3 3 3 1 6 2 1 1 6 8 8 9 8 11 9 7 9 11 12 12 12 12 14 14 14 14 13 10 11 12 10 10 11 9 11 9 9 10 11 10 9 10 10 9 10 11 10 11
7 8 6 5 4 5 4 7 4 10 11 11 9 10 8 6 6 9 10 10 13 15 13 12 12 11 12 14 17 14 14 9 8 9 10 10 9 9 12 11 12 13 12 12 13 11 10 10 11
3 3 3 2 1 1 5 1 4 9 9 9 8 6 7 8 4 3 6 8 9 10 12 13 13 14 12 13 12 13 13 13 11 12 10 8 11 10 12 12 12 13 13 13 13 12 14 13 10
6 8 4 3 3 6 5 5 5 16 14 14 8 7 5 6 5 3 4 8 7 6 7 8 9 9 10 11 11 12 13 13 11 11 11 12 11 12 13 12 12 12 12 13 13 12 13 14 11
3 3 3 5 4 4 3 6 6 16 17 15 12 8 7 7 5 5 7 5 4 5 6 9 9 10 11 12 12 12 11 13 12 11 11 11 12 12 13 12 13 13 14 13 13 14 15 17 16
3 7 7 5 6 5 3 7 4 7 14 16 13 10 8 7 5 5 6 8 8 9 11 10 11 11 12 13 12 11 12 13 12 11 12 12 12 12 13 13 13 13 13 13 13 16 15 15 16
Wind_Direction
318 324 68 42 48 59 271 264 270 314 310 262 302 156 158 128 165 209 289 111 117 140 151 166 166 158 150 151 151 142 139 138 137 136 137 137 134 134 133 135 138 141 144 150 152 150 147 140 134
323 89 43 78 86 48 276 255 295 247 274 327 336 64 38 61 72 123 111 138 143 145 151 166 174 163 156 155 162 158 147 143 144 144 143 144 142 141 141 141 144 147 151 155 155 153 150 140 146
282 31 85 90 100 180 231 257 292 311 287 286 290 71 92 22 1 176 343 136 138 155 162 166 171 169 163 161 163 166 157 148 151 150 148 148 148 146 146 146 147 151 153 154 153 151 141 139 151
54 12 29 95 208 252 239 304 303 310 319 225 175 70 36 267 211 199 115 134 140 159 168 170 170 170 169 167 171 173 169 161 157 156 155 155 153 152 151 152 154 157 158 161 162 159 153 154 163
38 55 52 28 235 250 291 271 316 326 336 330 353 349 44 348 2 80 119 148 156 166 171 164 178 178 176 175 177 179 175 174 169 166 162 161 159 158 158 159 162 163 165 165 162 159 162 163 167
48 96 38 250 241 338 285 296 319 2 335 332 24 39 272 300 315 185 159 170 175 168 162 166 177 180 182 182 181 183 176 179 180 175 172 168 171 170 168 167 169 168 165 163 164 164 169 171 172
112 90 233 272 266 351 248 324 34 342 340 356 312 83 292 316 242 211 192 156 170 163 156 168 178 186 181 180 187 185 184 181 186 186 185 182 177 181 177 178 174 170 173 173 174 172 172 173 177
99 95 23 269 282 276 322 38 324 19 304 313 29 45 259 239 261 211 151 129 140 160 157 166 173 177 184 195 185 183 186 186 194 196 194 192 182 185 185 183 182 180 177 181 181 181 179 181 181
109 65 198 250 254 249 336 7 319 302 285 310 304 18 303 332 57 14 353 58 149 185 200 164 176 193 190 191 205 192 187 188 199 209 206 196 204 187 186 189 187 188 189 184 188 186 186 185 191
108 132 216 225 265 276 290 307 304 313 292 290 318 300 348 6 354 244 262 250 239 221 219 191 187 190 192 184 173 191 210 201 192 188 209 213 227 202 192 193 191 191 194 194 192 194 189 182 181
173 194 230 259 278 298 293 297 238 228 267 239 279 276 301 218 249 260 235 220 231 232 205 206 199 184 178 199 172 168 192 209 206 196 193 208 217 220 203 201 208 204 195 190 197 193 202 200 178
300 246 233 284 305 325 304 284 278 200 248 238 249 258 288 289 241 229 243 250 154 204 242 227 187 183 184 167 188 177 183 193 213 214 204 199 205 219 213 211 190 194 196 196 191 199 204 206 200
221 257 310 300 286 263 265 260 265 259 277 258 255 256 250 252 255 271 236 38 96 101 325 228 155 170 176 194 176 182 216 203 203 207 215 208 210 220 215 213 181 177 180 196 196 200 211 214 209
314 318 302 290 286 270 268 278 45 295 297 305 302 286 266 237 242 241 246 143 118 111 86 66 57 72 133 104 107 189 199 176 343 334 284 244 232 221 203 201 206 195 181 190 203 206 212 216 211
299 316 321 256 268 269 339 319 270 292 335 307 306 301 290 269 264 227 159 156 132 101 104 92 82 68 67 69 60 50 316 359 81 283 313 270 246 240 235 230 214 210 194 184 186 203 215 219 220
343 9 4 292 328 295 44 280 318 317 333 328 322 322 314 282 278 175 117 100 71 90 73 59 57 66 59 55 52 41 48 45 39 310 280 308 290 274 246 287 269 261 228 208 211 203 203 216 217
323 260 234 301 284 313 247 294 294 317 313 312 314 318 327 345 15 56 84 84 66 62 63 54 39 38 41 37 42 53 50 39 36 38 24 354 350 289 273 236 248 256 268 239 220 214 202 213 221
231 223 257 266 305 319 298 292 306 309 316 282 310 316 329 56 50 29 31 43 54 50 54 51 40 31 18 18 21 45 80 44 20 26 30 23 13 4 325 267 280 285 314 265 240 228 214 206 211
330 264 253 267 278 286 277 283 294 286 306 322 299 315 83 76 61 54 35 27 30 44 49 46 35 21 27 9 359 9 13 347 40 49 21 31 8 354 346 360 341 254 233 259 250 234 222 212 181
260 273 275 268 259 255 285 287 286 253 268 268 290 327 126 117 87 77 61 45 34 33 36 29 27 22 16 15 3 347 298 299 351 40 7 31 15 349 346 337 322 278 296 295 260 236 231 226 182
249 255 271 267 267 239 271 290 304 310 280 8 6 22 83 71 75 58 46 47 47 33 25 27 16 8 8 0 350 313 311 9 20 3 351 355 342 336 305 297 294 289 263 264 278 244 228 235 234
255 247 264 293 323 290 102 300 301 352 39 44 38 48 56 59 55 48 41 39 34 29 32 18 15 2 4 2 9 27 20 346 347 322 314 328 327 317 313 309 312 308 304 292 285 285 249 228 234
248 241 274 292 269 308 178 221 253 40 49 54 61 62 58 63 66 54 43 40 34 24 21 22 14 0 357 357 5 2 347 320 323 322 316 321 325 323 315 300 295 306 310 300 290 286 273 244 233
246 289 82 23 81 276 288 180 279 12 144 92 63 62 60 40 49 47 35 29 21 21 18 16 13 3 353 351 355 341 336 337 338 327 321 324 322 322 316 315 309 296 288 287 294 294 292 275 231
177 141 273 311 81 237 240 237 213 133 102 110 93 69 62 39 35 44 27 16 8 7 13 12 4 0 349 342 329 342 337 332 324 326 322 321 317 317 315 316 308 300 295 289 280 272 272 272 268
189 168 173 234 217 262 321 253 240 145 141 139 144 130 109 78 42 29 11 18 8 6 6 7 356 345 338 344 351 343 336 328 319 322 321 309 306 303 300 298 297 297 293 288 284 281 274 264 259
184 163 195 115 290 267 224 185 221 169 176 186 171 163 156 147 113 60 14 28 15 355 347 354 353 345 339 349 340 336 331 331 322 319 312 303 300 299 299 299 290 289 285 281 278 273 270 269 262
157 163 80 7 246 240 241 235 230 192 200 198 199 201 172 138 124 94 36 32 12 345 333 350 338 331 339 337 340 340 334 333 328 323 321 316 309 307 302 301 297 290 281 276 272 269 265 259 258
145 189 86 137 169 214 287 254 203 196 197 193 194 181 159 120 101 52 35 23 1 357 351 353 333 348 351 348 338 340 338 345 344 339 331 325 319 318 311 311 305 302 292 279 263 255 256 254 254
180 190 156 157 223 238 184 259 247 193 165 178 185 143 117 95 67 43 18 6 5 5 1 349 352 356 357 347 344 343 347 351 348 344 342 339 337 331 328 323 320 315 307 306 293 274 257 248 245